This is the latest recevied weather packets stored in our database for station/object KF6YUA. If no packets are shown the sender has not sent any weather packets the latest 10 day(s).
| Time | Temp. | Humidity | Pressure | Rain* | Wind** | Luminosity | Snow |
|---|---|---|---|---|---|---|---|
| 1778029953 | 15.56° C | 78% | 1017.4 hPa | 0 mm | - | 87 W/m² | - |
| 1778029652 | 15.56° C | 78% | 1017.5 hPa | 0 mm | - | 95 W/m² | - |
| 1778029348 | 15.56° C | 78% | 1017.4 hPa | 0 mm | - | 106 W/m² | - |
| 1778029046 | 15.56° C | 78% | 1017.3 hPa | 0 mm | - | 109 W/m² | - |
| 1778028742 | 16.11° C | 77% | 1017.5 hPa | 0 mm | - | 120 W/m² | - |
| 1778028438 | 16.11° C | 79% | 1017.5 hPa | 0 mm | - | 117 W/m² | - |
| 1778028136 | 15.56° C | 78% | 1017.6 hPa | 0 mm | - | 116 W/m² | - |
| 1778027832 | 15.56° C | 79% | 1017.2 hPa | 0 mm | - | 124 W/m² | - |
| 1778027529 | 16.11° C | 76% | 1017.2 hPa | 0 mm | - | 142 W/m² | - |
| 1778027224 | 16.11° C | 77% | 1017.3 hPa | 0 mm | - | 165 W/m² | - |
| 1778026921 | 16.11° C | 77% | 1017.3 hPa | 0 mm | - | 153 W/m² | - |
| 1778026616 | 16.67° C | 77% | 1017.3 hPa | 0 mm | - | 157 W/m² | - |
| 1778026314 | 16.67° C | 76% | 1017 hPa | 0 mm | - | 165 W/m² | - |
| 1778026011 | 16.67° C | 77% | 1017.2 hPa | 0 mm | - | 174 W/m² | - |
| 1778025709 | 16.67° C | 75% | 1017 hPa | 0 mm | - | 188 W/m² | - |
| 1778025406 | 16.67° C | 77% | 1017 hPa | 0 mm | - | 186 W/m² | - |
| 1778025104 | 16.67° C | 76% | 1017.2 hPa | 0 mm | - | 184 W/m² | - |
| 1778024800 | 16.67° C | 74% | 1017.2 hPa | 0 mm | - | 181 W/m² | - |
| 1778024497 | 17.78° C | 74% | 1017.2 hPa | 0 mm | - | 218 W/m² | - |
| 1778024194 | 17.22° C | 74% | 1017.3 hPa | 0 mm | - | 391 W/m² | - |
| 1778023892 | 16.67° C | 76% | 1017.2 hPa | 0 mm | - | 263 W/m² | - |
| 1778023589 | 16.67° C | 75% | 1017.2 hPa | 0 mm | - | 204 W/m² | - |
| 1778023286 | 17.22° C | 76% | 1017 hPa | 0 mm | - | 269 W/m² | - |
| 1778022983 | 16.67° C | 75% | 1017.3 hPa | 0 mm | - | 231 W/m² | - |
| 1778022682 | 16.67° C | 75% | 1017.1 hPa | 0 mm | - | 201 W/m² | - |
* Rain latest hour (hover to see other rain measurements)
** Current wind speed in m/s (hover to see current wind gust speed)